QPF
0.00 0.00 0.00 0.00 0.00 0.00 0.00 0.00 0.00 0.00 0.00 0.00 0.00 0.00 0.00 0.00 0.00 0.00 0.00 0.00 0.00 0.00 0.00 0.00 0.00 0.00 0.00 0.00 0.00 0.00 0.00 0.00 0.00 0.00 0.00 0.00 0.00 0.00 0.00 0.00 0.00 0.00 0.00
0.00 0.00 0.00 0.00 0.00 0.00 0.00 0.00 0.00 0.00 0.00 0.00 0.00 0.00 0.00 0.00 0.00 0.00 0.00 0.00 0.00 0.00 0.00 0.00 0.00 0.00 0.00 0.00 0.00 0.00 0.00 0.00 0.00 0.00 0.00 0.00 0.00 0.00 0.00 0.00 0.00 0.00 0.00
0.00 0.00 0.00 0.00 0.00 0.00 0.00 0.00 0.00 0.00 0.00 0.00 0.00 0.00 0.00 0.00 0.00 0.00 0.00 0.00 0.00 0.00 0.00 0.00 0.00 0.00 0.00 0.00 0.00 0.00 0.00 0.00 0.00 0.00 0.00 0.00 0.00 0.00 0.00 0.00 0.00 0.00 0.00
0.00 0.00 0.00 0.00 0.00 0.00 0.00 0.00 0.00 0.00 0.00 0.00 0.00 0.00 0.00 0.00 0.00 0.00 0.00 0.00 0.00 0.00 0.00 0.00 0.00 0.00 0.00 0.00 0.00 0.00 0.00 0.00 0.00 0.00 0.00 0.00 0.00 0.00 0.00 0.00 0.00 0.00 0.00
0.00 0.00 0.00 0.00 0.00 0.00 0.00 0.00 0.00 0.00 0.00 0.00 0.00 0.00 0.00 0.00 0.00 0.00 0.00 0.00 0.00 0.00 0.00 0.00 0.00 0.00 0.00 0.00 0.00 0.00 0.00 0.00 0.00 0.00 0.00 0.00 0.00 0.00 0.00 0.00 0.00 0.00 0.00
0.00 0.00 0.00 0.00 0.00 0.00 0.00 0.00 0.00 0.00 0.00 0.00 0.00 0.00 0.00 0.00 0.00 0.00 0.00 0.00 0.00 0.00 0.00 0.00 0.00 0.00 0.00 0.00 0.00 0.00 0.00 0.00 0.00 0.00 0.00 0.00 0.00 0.00 0.00 0.00 0.00 0.00 0.00
0.00 0.00 0.00 0.00 0.00 0.00 0.00 0.00 0.00 0.00 0.00 0.00 0.00 0.00 0.00 0.00 0.00 0.00 0.00 0.00 0.00 0.00 0.00 0.00 0.00 0.00 0.00 0.00 0.00 0.00 0.00 0.00 0.00 0.00 0.00 0.00 0.00 0.00 0.00 0.00 0.00 0.00 0.00
0.00 0.00 0.00 0.00 0.00 0.00 0.00 0.00 0.00 0.00 0.00 0.00 0.00 0.00 0.00 0.00 0.00 0.00 0.00 0.00 0.00 0.00 0.00 0.00 0.00 0.00 0.00 0.00 0.00 0.00 0.00 0.00 0.00 0.00 0.00 0.00 0.00 0.00 0.00 0.00 0.00 0.00 0.00
0.00 0.00 0.00 0.00 0.00 0.00 0.00 0.00 0.00 0.00 0.00 0.00 0.00 0.00 0.00 0.00 0.00 0.00 0.00 0.00 0.00 0.00 0.00 0.00 0.00 0.00 0.00 0.00 0.00 0.00 0.00 0.00 0.00 0.00 0.00 0.00 0.00 0.00 0.00 0.00 0.00 0.00 0.00
0.00 0.00 0.00 0.00 0.00 0.00 0.00 0.00 0.00 0.00 0.00 0.00 0.00 0.00 0.00 0.00 0.00 0.00 0.00 0.00 0.00 0.00 0.00 0.00 0.00 0.00 0.00 0.00 0.00 0.00 0.00 0.00 0.00 0.00 0.00 0.00 0.00 0.00 0.00 0.00 0.00 0.00 0.00
0.00 0.00 0.00 0.00 0.00 0.00 0.00 0.00 0.00 0.00 0.00 0.00 0.00 0.00 0.00 0.00 0.00 0.00 0.00 0.00 0.00 0.00 0.00 0.00 0.00 0.00 0.00 0.00 0.00 0.00 0.00 0.00 0.00 0.00 0.00 0.00 0.00 0.00 0.00 0.00 0.00 0.00 0.00
0.00 0.00 0.00 0.00 0.00 0.00 0.00 0.00 0.00 0.00 0.00 0.00 0.00 0.00 0.00 0.00 0.00 0.00 0.00 0.00 0.00 0.00 0.00 0.00 0.00 0.00 0.00 0.00 0.00 0.00 0.00 0.01 0.01 0.00 0.00 0.00 0.00 0.00 0.00 0.00 0.00 0.00 0.00
0.00 0.00 0.00 0.00 0.00 0.00 0.00 0.00 0.00 0.00 0.00 0.00 0.00 0.00 0.00 0.00 0.00 0.00 0.00 0.00 0.00 0.00 0.00 0.00 0.00 0.00 0.00 0.00 0.00 0.00 0.01 0.00 0.01 0.01 0.00 0.00 0.00 0.00 0.00 0.00 0.00 0.00 0.00
0.00 0.00 0.00 0.00 0.00 0.00 0.00 0.00 0.00 0.00 0.00 0.00 0.00 0.00 0.00 0.00 0.00 0.00 0.00 0.00 0.00 0.00 0.00 0.00 0.00 0.00 0.00 0.00 0.00 0.00 0.00 0.00 0.01 0.01 0.01 0.01 0.00 0.00 0.00 0.00 0.00 0.00 0.00
0.00 0.00 0.00 0.00 0.00 0.00 0.00 0.00 0.00 0.00 0.00 0.00 0.00 0.00 0.00 0.00 0.00 0.00 0.00 0.00 0.00 0.00 0.01 0.00 0.00 0.00 0.00 0.00 0.00 0.00 0.00 0.00 0.01 0.01 0.01 0.01 0.01 0.00 0.00 0.00 0.00 0.00 0.00
0.00 0.00 0.00 0.00 0.00 0.00 0.00 0.00 0.00 0.00 0.00 0.00 0.00 0.00 0.00 0.00 0.00 0.00 0.01 0.00 0.00 0.00 0.01 0.00 0.00 0.00 0.00 0.00 0.00 0.00 0.00 0.00 0.00 0.00 0.00 0.01 0.01 0.00 0.00 0.00 0.00 0.00 0.00
0.00 0.00 0.00 0.00 0.00 0.00 0.00 0.00 0.00 0.00 0.00 0.00 0.00 0.00 0.00 0.00 0.00 0.00 0.00 0.01 0.01 0.00 0.00 0.00 0.00 0.00 0.00 0.00 0.00 0.00 0.00 0.00 0.00 0.00 0.00 0.01 0.01 0.00 0.00 0.00 0.00 0.00 0.00
0.00 0.00 0.00 0.00 0.00 0.00 0.00 0.00 0.00 0.00 0.00 0.00 0.00 0.00 0.00 0.00 0.00 0.00 0.01 0.00 0.00 0.00 0.00 0.00 0.00 0.00 0.00 0.00 0.00 0.00 0.00 0.00 0.00 0.00 0.01 0.01 0.01 0.00 0.00 0.00 0.00 0.00 0.00
0.00 0.00 0.00 0.00 0.00 0.00 0.00 0.00 0.00 0.00 0.00 0.00 0.00 0.00 0.00 0.00 0.00 0.00 0.00 0.00 0.00 0.00 0.00 0.00 0.00 0.00 0.00 0.00 0.00 0.00 0.00 0.00 0.00 0.00 0.01 0.01 0.01 0.00 0.00 0.00 0.00 0.00 0.00
0.00 0.00 0.00 0.00 0.00 0.00 0.00 0.00 0.00 0.00 0.00 0.00 0.00 0.00 0.00 0.00 0.00 0.00 0.00 0.00 0.00 0.00 0.00 0.00 0.00 0.00 0.00 0.00 0.00 0.00 0.00 0.00 0.00 0.00 0.00 0.00 0.00 0.00 0.00 0.00 0.00 0.00 0.00
0.00 0.00 0.00 0.00 0.00 0.00 0.00 0.00 0.00 0.00 0.00 0.00 0.00 0.00 0.00 0.00 0.00 0.00 0.00 0.00 0.00 0.00 0.00 0.00 0.00 0.00 0.00 0.00 0.00 0.00 0.00 0.00 0.00 0.00 0.00 0.00 0.00 0.00 0.00 0.00 0.00 0.00 0.00
0.00 0.00 0.00 0.00 0.00 0.00 0.00 0.00 0.00 0.00 0.00 0.00 0.00 0.00 0.00 0.00 0.00 0.00 0.00 0.00 0.00 0.00 0.00 0.00 0.00 0.00 0.00 0.00 0.00 0.00 0.00 0.00 0.00 0.00 0.00 0.00 0.00 0.00 0.00 0.00 0.00 0.00 0.00
0.00 0.00 0.00 0.00 0.00 0.00 0.00 0.00 0.00 0.00 0.00 0.00 0.00 0.00 0.00 0.00 0.00 0.00 0.00 0.00 0.00 0.00 0.00 0.00 0.00 0.00 0.00 0.00 0.00 0.00 0.00 0.00 0.00 0.00 0.00 0.00 0.00 0.00 0.00 0.00 0.00 0.00 0.00
0.00 0.00 0.00 0.00 0.00 0.00 0.00 0.00 0.00 0.00 0.00 0.00 0.00 0.00 0.00 0.00 0.00 0.00 0.00 0.00 0.00 0.00 0.00 0.00 0.00 0.00 0.00 0.00 0.00 0.00 0.00 0.00 0.00 0.00 0.00 0.00 0.00 0.00 0.00 0.00 0.00 0.00 0.00
0.00 0.00 0.00 0.00 0.00 0.00 0.00 0.00 0.00 0.00 0.00 0.00 0.00 0.00 0.00 0.00 0.00 0.00 0.00 0.00 0.00 0.00 0.00 0.00 0.00 0.00 0.00 0.00 0.00 0.00 0.00 0.00 0.00 0.00 0.00 0.00 0.00 0.00 0.00 0.00 0.00 0.00 0.00
0.00 0.00 0.00 0.00 0.00 0.00 0.00 0.00 0.00 0.00 0.00 0.00 0.00 0.00 0.00 0.00 0.00 0.00 0.00 0.00 0.00 0.00 0.00 0.00 0.00 0.00 0.00 0.00 0.00 0.00 0.00 0.00 0.00 0.00 0.00 0.00 0.00 0.00 0.00 0.00 0.00 0.00 0.00
MSLP
1027.01 1027.01 1027.02 1027.00 1026.98 1026.88 1026.67 1026.56 1026.52 1026.32 1026.29 1026.31 1025.94 1025.04 1024.92 1024.55 1023.82 1023.33 1023.01 1022.42 1022.18 1021.96 1021.29 1020.81 1020.26 1019.75 1019.56 1019.04 1018.89 1018.86 1018.75 1018.70 1017.80 1017.14 1017.21 1016.92 1017.16 1017.30 1017.53 1017.69 1018.03 1018.40 1018.55
1026.87 1026.96 1027.10 1027.21 1027.27 1027.17 1026.93 1026.79 1026.65 1026.64 1025.98 1026.27 1025.88 1025.14 1024.81 1024.77 1024.02 1023.11 1022.89 1022.63 1022.18 1021.50 1020.90 1020.51 1019.90 1019.25 1018.89 1018.63 1018.24 1018.10 1017.96 1017.91 1017.74 1016.75 1016.92 1016.85 1016.60 1016.39 1016.47 1016.86 1017.20 1017.38 1017.67
1026.81 1027.02 1027.18 1027.18 1027.15 1027.05 1026.95 1026.85 1026.71 1026.53 1026.19 1025.94 1025.58 1025.17 1024.51 1024.08 1023.63 1022.99 1022.40 1022.00 1021.72 1021.37 1020.86 1020.32 1019.47 1019.00 1018.39 1017.92 1017.38 1017.17 1017.11 1016.74 1016.67 1016.55 1016.08 1016.21 1015.88 1015.82 1016.18 1016.33 1016.46 1016.69 1017.16
1026.61 1026.82 1026.97 1027.07 1027.12 1027.01 1026.82 1026.73 1026.67 1026.46 1026.16 1025.69 1025.17 1024.60 1024.29 1023.94 1023.24 1022.64 1022.27 1021.60 1021.14 1020.74 1020.02 1019.69 1018.79 1018.38 1017.97 1017.19 1016.70 1016.30 1016.34 1016.12 1015.96 1015.48 1015.31 1015.61 1015.54 1015.13 1014.85 1015.35 1015.99 1015.98 1016.26
1026.35 1026.69 1026.96 1027.01 1026.99 1026.92 1026.79 1026.70 1026.47 1026.19 1025.80 1025.22 1024.76 1024.30 1023.85 1023.25 1022.67 1022.27 1021.82 1021.15 1020.53 1019.98 1019.36 1018.92 1017.87 1017.48 1017.03 1016.59 1016.42 1015.71 1015.50 1015.43 1015.04 1014.89 1014.30 1014.51 1014.72 1014.69 1013.62 1013.67 1014.21 1015.22 1015.43
1026.80 1027.20 1027.16 1027.10 1027.06 1027.09 1027.06 1026.97 1026.63 1026.15 1025.69 1025.18 1024.67 1024.15 1023.32 1022.73 1022.34 1022.08 1021.61 1020.94 1020.29 1019.48 1018.58 1017.70 1016.98 1016.87 1016.06 1015.61 1015.27 1014.99 1014.83 1014.47 1013.93 1013.81 1013.33 1013.13 1012.59 1012.70 1013.21 1012.94 1013.08 1014.00 1014.59
1027.19 1027.25 1027.33 1027.51 1027.63 1027.56 1027.39 1027.06 1026.64 1026.15 1025.67 1025.14 1024.62 1024.09 1023.17 1022.65 1022.28 1021.65 1021.04 1020.19 1019.27 1018.42 1017.63 1016.86 1016.13 1015.79 1015.34 1014.83 1014.33 1013.97 1013.64 1013.34 1012.66 1012.67 1012.08 1011.54 1011.38 1011.20 1011.72 1012.17 1011.83 1011.69 1011.44
1027.53 1027.77 1027.71 1027.90 1027.99 1027.85 1027.59 1027.29 1026.83 1026.38 1025.86 1025.29 1024.67 1024.29 1023.54 1022.81 1022.22 1021.46 1020.71 1019.75 1018.76 1017.86 1017.23 1016.60 1015.94 1015.16 1014.85 1014.73 1014.26 1013.45 1012.57 1012.10 1011.62 1011.22 1010.57 1010.37 1010.02 1010.29 1010.29 1010.35 1010.54 1010.71 1010.89
1027.51 1027.86 1028.08 1028.23 1028.25 1028.08 1027.86 1027.39 1026.97 1026.46 1025.86 1025.30 1024.75 1024.06 1023.58 1022.82 1022.32 1021.34 1020.34 1019.39 1018.32 1017.44 1016.95 1016.31 1015.73 1014.97 1014.53 1014.26 1013.54 1012.48 1011.69 1010.71 1010.07 1009.84 1009.54 1009.17 1008.84 1008.82 1009.18 1009.65 1009.98 1010.19 1010.08
1027.72 1027.92 1028.10 1028.15 1028.10 1027.97 1027.73 1027.37 1026.90 1026.51 1025.71 1025.14 1024.37 1024.02 1023.36 1022.45 1021.80 1020.83 1019.80 1018.78 1017.61 1016.79 1016.15 1015.40 1014.87 1014.19 1013.51 1013.06 1012.55 1011.92 1010.77 1009.28 1009.62 1008.90 1008.32 1007.69 1007.52 1007.60 1007.79 1007.93 1008.51 1008.40 1008.28
1027.83 1028.00 1028.13 1028.17 1028.05 1027.85 1027.43 1027.03 1026.56 1026.03 1025.49 1024.89 1024.12 1023.43 1022.74 1022.00 1021.02 1020.02 1018.96 1017.89 1017.01 1015.99 1015.18 1014.44 1013.95 1013.55 1012.81 1012.26 1011.69 1010.62 1009.29 1008.81 1008.20 1007.57 1006.88 1006.32 1006.22 1006.17 1006.06 1006.32 1006.41 1006.77 1006.86
1027.91 1028.13 1028.22 1028.14 1027.96 1027.60 1027.19 1026.58 1026.09 1025.63 1025.08 1024.26 1023.43 1022.62 1021.72 1020.80 1019.95 1018.91 1017.93 1016.90 1015.98 1014.91 1014.01 1013.23 1012.67 1012.29 1011.47 1010.67 1010.01 1009.43 1008.61 1007.80 1007.06 1005.85 1004.94 1004.32 1004.26 1004.36 1004.47 1004.78 1005.04 1005.09 1005.17
1027.93 1028.28 1028.11 1027.87 1027.58 1027.20 1026.82 1026.19 1025.62 1025.10 1024.41 1023.54 1022.84 1021.80 1020.50 1019.48 1018.54 1017.52 1016.49 1015.58 1014.75 1013.81 1012.94 1012.02 1010.93 1009.94 1009.16 1008.56 1008.47 1008.11 1007.65 1007.13 1006.13 1004.88 1003.29 1002.51 1002.37 1002.56 1003.29 1003.64 1003.92 1004.12 1004.37
1028.08 1027.79 1027.47 1027.34 1026.91 1026.58 1026.23 1025.68 1025.07 1024.41 1023.58 1022.75 1021.75 1020.46 1019.04 1017.84 1016.79 1015.96 1014.97 1013.83 1012.96 1012.11 1011.25 1010.07 1009.17 1008.50 1007.98 1007.22 1006.99 1006.71 1006.30 1005.77 1005.19 1003.93 1002.47 1001.13 1001.02 1001.19 1001.44 1002.20 1002.79 1003.17 1003.50
1027.74 1027.33 1027.06 1026.74 1026.46 1025.97 1025.57 1025.00 1024.35 1023.44 1022.63 1021.19 1019.86 1018.70 1017.40 1016.26 1015.44 1014.18 1012.97 1011.97 1010.97 1009.98 1008.85 1007.98 1007.64 1007.57 1006.86 1006.36 1005.91 1005.28 1004.70 1004.22 1003.51 1002.58 1000.98 999.92 999.77 999.74 999.95 1000.59 1001.16 1002.11 1002.53
1027.62 1027.16 1026.81 1026.37 1025.95 1025.52 1024.93 1024.09 1023.21 1022.32 1021.23 1020.21 1018.95 1017.77 1016.63 1015.48 1014.16 1012.88 1011.81 1010.80 1009.68 1008.51 1007.43 1006.71 1006.04 1005.64 1005.27 1004.54 1003.97 1003.38 1003.02 1002.47 1001.65 1000.98 998.79 998.30 998.21 998.44 998.61 999.44 1000.17 1000.62 1001.36
1027.27 1026.88 1026.43 1026.02 1025.69 1025.15 1024.52 1023.96 1023.01 1020.75 1020.19 1019.65 1018.65 1017.48 1016.31 1014.91 1013.76 1012.52 1011.23 1010.09 1009.28 1008.50 1007.88 1006.96 1006.03 1005.02 1003.87 1003.11 1002.57 1002.12 1001.55 1000.87 1000.22 999.66 998.26 997.74 997.61 997.65 998.07 998.35 999.05 999.71 1000.37
1026.82 1026.46 1026.11 1025.70 1025.34 1024.79 1024.24 1023.57 1022.95 1022.02 1020.82 1018.74 1017.71 1017.24 1016.04 1014.95 1013.63 1012.12 1011.37 1010.49 1010.02 1009.14 1008.57 1007.46 1006.28 1005.07 1003.45 1002.21 1001.57 1001.02 1000.44 999.76 999.26 998.49 997.38 996.83 996.62 996.56 997.08 997.44 998.01 998.62 999.53
1026.50 1026.14 1025.71 1025.32 1024.86 1024.37 1023.87 1023.27 1022.66 1021.67 1020.79 1019.65 1018.03 1016.76 1015.91 1014.73 1013.48 1012.88 1012.14 1011.74 1010.75 1009.68 1008.69 1007.51 1006.29 1004.85 1003.10 1001.60 1000.42 999.92 999.52 998.94 998.36 997.83 996.92 996.28 995.90 995.95 996.10 996.73 997.40 998.05 998.79
1025.88 1025.56 1025.10 1024.95 1024.56 1024.11 1023.63 1023.08 1022.36 1021.41 1020.64 1019.66 1018.49 1017.40 1015.83 1014.46 1013.82 1013.07 1012.49 1011.80 1010.91 1009.95 1008.88 1007.71 1006.25 1004.79 1002.97 1001.20 999.48 998.39 998.03 997.91 997.54 997.09 996.41 995.91 995.64 995.59 995.67 996.12 996.79 997.49 998.19
1025.35 1025.06 1024.69 1024.58 1024.31 1023.88 1023.35 1022.91 1022.23 1021.39 1020.60 1019.56 1018.52 1017.59 1015.66 1015.50 1014.81 1013.95 1012.87 1011.91 1011.04 1010.02 1008.95 1007.89 1006.52 1005.01 1003.41 1001.78 1000.06 998.27 997.33 996.83 996.26 995.83 995.48 995.24 995.22 995.32 995.56 996.01 996.53 997.15 997.87
1024.70 1024.69 1024.55 1024.25 1023.88 1023.55 1023.06 1022.68 1021.96 1021.33 1020.52 1019.61 1018.59 1017.63 1016.40 1015.85 1015.08 1014.19 1013.16 1012.15 1011.18 1010.25 1009.26 1008.16 1006.83 1005.44 1004.00 1002.50 1001.03 999.72 998.44 997.39 996.64 995.99 995.62 995.44 995.41 995.52 995.77 996.23 996.82 997.45 998.22
1024.02 1024.19 1024.00 1023.62 1023.48 1023.24 1022.85 1022.46 1021.79 1021.23 1020.54 1019.75 1018.91 1018.00 1017.08 1016.31 1015.45 1014.48 1013.48 1012.40 1011.34 1010.30 1009.28 1008.20 1007.05 1005.73 1004.31 1002.98 1001.75 1000.66 999.74 998.80 997.94 997.14 996.88 996.66 996.54 996.57 996.76 997.12 997.59 998.19 998.89
1023.50 1023.59 1023.53 1023.34 1023.23 1022.96 1022.79 1022.35 1021.79 1021.18 1020.54 1019.76 1019.04 1018.33 1017.59 1016.77 1015.92 1014.97 1013.90 1012.83 1011.74 1010.64 1009.58 1008.50 1007.36 1006.18 1004.87 1003.55 1002.41 1001.45 1000.49 999.68 998.93 998.34 997.91 997.70 997.66 997.78 998.00 998.26 998.63 999.11 999.69
1022.95 1022.99 1023.04 1023.05 1022.99 1022.77 1022.63 1022.23 1021.69 1021.13 1020.48 1019.86 1019.23 1018.51 1017.70 1016.94 1016.14 1015.20 1014.23 1013.29 1012.25 1011.14 1010.05 1008.97 1007.86 1006.70 1005.42 1004.13 1002.95 1002.12 1001.34 1000.55 999.94 999.46 999.09 998.86 998.86 998.97 999.16 999.42 999.79 1000.19 1000.65
1022.40 1022.49 1022.58 1022.74 1022.64 1022.57 1022.48 1022.02 1021.54 1021.00 1020.43 1019.82 1019.22 1018.52 1017.74 1016.93 1016.17 1015.29 1014.39 1013.53 1012.63 1011.61 1010.55 1009.48 1008.46 1007.35 1006.18 1004.88 1003.80 1002.60 1001.90 1001.39 1001.03 1000.59 1000.26 1000.10 1000.09 1000.17 1000.33 1000.59 1000.93 1001.39 1001.86
Thickness
5412 5409 5407 5404 5401 5399 5398 5396 5394 5395 5393 5391 5392 5397 5395 5396 5401 5405 5406 5411 5415 5420 5427 5431 5438 5443 5448 5452 5452 5455 5458 5458 5474 5494 5490 5495 5497 5502 5503 5503 5504 5504 5505
5390 5387 5382 5379 5375 5373 5372 5370 5369 5367 5370 5368 5369 5375 5374 5372 5377 5384 5385 5385 5387 5396 5402 5408 5417 5422 5427 5432 5436 5439 5440 5442 5448 5466 5471 5473 5480 5485 5490 5490 5491 5493 5495
5367 5362 5356 5353 5351 5348 5346 5345 5344 5343 5343 5345 5346 5348 5352 5355 5356 5359 5362 5365 5367 5372 5378 5384 5395 5400 5408 5412 5418 5424 5425 5429 5432 5439 5453 5451 5459 5466 5467 5472 5477 5479 5478
5342 5337 5331 5326 5322 5319 5317 5316 5315 5315 5315 5317 5320 5323 5323 5327 5331 5333 5332 5338 5343 5349 5358 5363 5375 5381 5387 5393 5398 5405 5405 5409 5414 5422 5432 5435 5436 5446 5453 5458 5457 5464 5467
5320 5311 5305 5300 5296 5292 5289 5287 5286 5286 5287 5290 5293 5294 5296 5299 5303 5301 5303 5310 5317 5324 5333 5340 5353 5360 5367 5372 5373 5384 5384 5387 5395 5402 5415 5418 5423 5424 5441 5446 5449 5443 5445
5294 5286 5282 5279 5274 5269 5266 5263 5262 5262 5262 5262 5263 5263 5269 5272 5268 5267 5269 5275 5285 5298 5310 5322 5331 5333 5342 5347 5352 5358 5361 5366 5377 5381 5393 5404 5422 5420 5418 5425 5429 5425 5429
5269 5264 5261 5255 5251 5247 5245 5243 5242 5242 5242 5241 5240 5240 5245 5244 5238 5239 5241 5248 5260 5272 5281 5290 5301 5308 5313 5319 5325 5330 5338 5345 5358 5363 5374 5391 5399 5409 5407 5405 5415 5422 5435
5251 5245 5241 5236 5230 5227 5225 5222 5220 5219 5217 5216 5217 5214 5215 5217 5214 5215 5216 5222 5232 5243 5249 5256 5263 5275 5281 5281 5285 5295 5310 5320 5334 5343 5356 5374 5379 5382 5385 5396 5400 5404 5407
5239 5231 5224 5217 5212 5207 5203 5201 5199 5197 5196 5193 5192 5191 5189 5190 5186 5188 5193 5199 5209 5218 5220 5224 5228 5237 5246 5247 5249 5263 5277 5297 5313 5317 5328 5345 5357 5362 5365 5366 5376 5382 5392
5222 5215 5208 5202 5195 5191 5186 5181 5179 5174 5175 5174 5174 5169 5166 5167 5165 5169 5174 5180 5189 5194 5197 5202 5205 5209 5217 5220 5219 5228 5243 5277 5273 5285 5299 5317 5330 5339 5344 5350 5358 5367 5384
5205 5198 5191 5185 5179 5173 5171 5166 5162 5159 5156 5155 5155 5154 5151 5150 5154 5158 5163 5169 5173 5180 5184 5188 5188 5186 5191 5195 5196 5209 5228 5240 5247 5255 5271 5290 5302 5313 5326 5336 5347 5352 5363
5189 5181 5173 5166 5160 5157 5153 5151 5148 5143 5142 5142 5144 5145 5144 5146 5148 5152 5156 5160 5163 5169 5172 5173 5171 5169 5172 5177 5178 5186 5199 5207 5218 5234 5250 5267 5284 5295 5308 5316 5325 5335 5347
5174 5164 5158 5153 5148 5143 5139 5137 5135 5133 5133 5135 5135 5136 5140 5142 5144 5147 5151 5153 5154 5155 5155 5153 5154 5156 5158 5160 5158 5164 5169 5176 5190 5206 5232 5253 5267 5280 5283 5289 5298 5308 5319
5157 5154 5150 5143 5139 5133 5129 5126 5126 5125 5127 5128 5129 5134 5139 5142 5143 5144 5147 5150 5150 5149 5148 5147 5142 5137 5136 5140 5141 5141 5146 5156 5166 5185 5207 5234 5245 5255 5263 5271 5276 5284 5292
5147 5144 5139 5134 5128 5125 5122 5120 5120 5123 5123 5128 5134 5137 5142 5143 5141 5145 5148 5150 5150 5148 5148 5142 5135 5123 5121 5119 5119 5125 5132 5141 5155 5172 5193 5214 5224 5234 5246 5255 5261 5263 5269
5135 5133 5128 5124 5119 5116 5115 5119 5118 5120 5123 5125 5129 5132 5135 5136 5140 5142 5144 5144 5144 5143 5141 5135 5131 5123 5119 5117 5116 5119 5124 5135 5148 5160 5190 5202 5210 5217 5231 5236 5240 5244 5251
5119 5120 5117 5113 5108 5106 5108 5108 5112 5125 5120 5119 5120 5122 5124 5129 5130 5132 5135 5135 5131 5129 5120 5115 5114 5114 5115 5113 5114 5116 5124 5133 5142 5154 5174 5187 5194 5200 5206 5216 5221 5227 5233
5109 5108 5105 5102 5098 5098 5099 5102 5102 5104 5109 5117 5116 5114 5116 5116 5119 5123 5122 5120 5112 5108 5102 5100 5100 5100 5107 5111 5112 5115 5122 5130 5138 5149 5166 5176 5183 5189 5192 5200 5206 5214 5219
5099 5097 5093 5092 5090 5091 5092 5094 5095 5098 5099 5101 5107 5107 5105 5106 5108 5105 5103 5098 5098 5097 5094 5091 5091 5094 5102 5109 5116 5118 5120 5127 5134 5143 5157 5169 5178 5180 5185 5187 5190 5195 5200
5088 5087 5086 5081 5081 5083 5085 5086 5088 5091 5091 5091 5093 5095 5099 5101 5094 5091 5086 5085 5085 5086 5086 5085 5086 5089 5099 5109 5122 5128 5130 5130 5135 5142 5153 5161 5167 5170 5174 5176 5177 5179 5184
5078 5075 5074 5071 5072 5075 5078 5079 5081 5082 5082 5083 5084 5083 5091 5082 5078 5075 5075 5075 5076 5078 5079 5079 5080 5083 5090 5098 5110 5126 5133 5137 5143 5148 5153 5156 5157 5159 5161 5161 5163 5164 5167
5067 5063 5061 5063 5067 5069 5071 5073 5074 5074 5074 5074 5074 5073 5074 5068 5065 5064 5063 5064 5067 5070 5072 5073 5076 5078 5082 5089 5097 5106 5115 5123 5130 5136 5139 5141 5143 5144 5146 5146 5146 5148 5148
5057 5054 5056 5059 5061 5063 5065 5064 5066 5066 5066 5065 5064 5062 5060 5057 5055 5055 5055 5057 5060 5063 5066 5069 5071 5074 5079 5083 5089 5094 5100 5105 5111 5117 5120 5123 5125 5127 5128 5129 5129 5129 5131
5048 5047 5051 5055 5054 5057 5057 5058 5059 5059 5058 5057 5054 5051 5049 5048 5047 5047 5048 5049 5052 5056 5059 5063 5066 5069 5074 5079 5084 5087 5091 5094 5098 5102 5104 5106 5108 5109 5110 5113 5114 5115 5116
5043 5044 5047 5049 5047 5050 5049 5050 5052 5050 5049 5048 5046 5044 5044 5042 5041 5042 5043 5044 5045 5048 5051 5055 5059 5063 5068 5074 5079 5081 5083 5085 5087 5089 5092 5094 5094 5094 5095 5096 5097 5099 5100
5039 5041 5043 5043 5044 5044 5042 5044 5045 5045 5044 5043 5041 5039 5039 5039 5039 5039 5040 5041 5042 5043 5045 5048 5051 5055 5060 5065 5070 5075 5077 5077 5075 5077 5079 5081 5082 5082 5083 5083 5083 5083 5084